Location: Newark
(42.7575°N, 71.4644°W)
Time: 07:14:55
(UTC+00:00)

ISS - Visible Passes

Search period start: 20 October 2019 00:00
Search period end: 30 October 2019 00:00
Orbit: 411 x 421 km, 51.6° (Epoch: 20 October)

Date Brightness Start Highest point End Pass type
(mag) Time Alt. Az. Time Alt. Az. Time Alt. Az.
23 Oct -1.0 10:13:33 10° S 10:16:06 20° SE 10:18:38 10° E visible
24 Oct -0.7 09:26:23 10° SSE 09:27:41 12° SE 09:28:58 10° ESE visible
25 Oct -3.0 10:12:04 10° SW 10:15:21 53° SE 10:18:40 10° ENE visible
26 Oct -2.1 09:25:28 22° S 09:26:49 31° SE 09:29:50 10° ENE visible
27 Oct -0.8 08:39:26 16° ESE 08:39:26 16° ESE 08:40:44 10° E visible
27 Oct -3.7 10:12:22 17° WSW 10:14:47 60° NNW 10:18:07 10° NE visible
28 Oct -3.8 09:26:10 83° ESE 09:26:10 83° ESE 09:29:29 10° ENE visible
29 Oct -0.8 08:39:48 17° ENE 08:39:48 17° ENE 08:40:46 10° ENE visible
29 Oct -2.7 10:12:43 20° WNW 10:14:20 30° NNW 10:17:22 10° NE visible
